Weather observations for the past three days for
Chicago / West Chicago, Dupage Airport
Metric (Imperial)
Date Time (cdt) Wind (kph) Vis. (km) Weather Sky Cond. Temperature (ºC) Relative Humidity Wind Chill (°C) Heat Index (°C) Pressure Precipitation (cm)
Air Dwpt 6 hour altimeter (cm) sea level (mb) 1 hr 3 hr 6 hr
Max. Min.
21 12:52 SW 17 G 31 16.09 A Few Clouds FEW055 32.2 18.3 32.2 20.6 44% 33 76.61 1020.8
21 11:52 SW 13 16.09 Fair CLR 31.1 19.4 50% 33 76.66 1021.6
21 10:52 SW 9 16.09 Fair CLR 30 20 55% 32 76.71 1022.1
21 09:52 S 6 16.09 Fair CLR 27.2 21.1 69% 29 76.73 1022.6
21 08:52 SE 6 11.27 Fair CLR 24.4 20 77% 25 76.78 1023.1
21 07:52 Vrbl 6 9.66 Fair with Haze CLR 22.2 18.9 82% 76.81 1023.6
21 06:52 Calm 9.66 Fog/Mist CLR 20.6 18.3 20.6 18.9 87% 76.78 1023.3
21 05:52 S 7 9.66 Fog/Mist CLR 18.9 17.8 93% 76.76 1023.0
21 04:52 Calm 16.09 Partly Cloudy SCT100 19.4 17.8 91% 76.76 1022.7
21 03:52 Calm 16.09 Fair CLR 19.4 17.8 91% 76.73 1022.6
21 02:52 Calm 16.09 Mostly Cloudy FEW080 BKN120 19.4 17.8 91% 76.76 1022.8
21 01:52 Calm 16.09 Overcast FEW006 SCT085 OVC110 19.4 17.8 91% 76.81 1023.5
21 00:52 NE 7 16.09 Overcast BKN006 OVC090 19.4 17.8 22.2 18.9 91% 76.81 1023.6
20 23:52 NE 11 14.48 Overcast OVC006 19.4 17.8 91% 76.84 1023.9
20 22:52 E 9 12.87 Overcast BKN005 OVC090 18.9 17.8 93% 76.86 1024.1
20 21:52 E 11 14.48 Overcast OVC006 19.4 18.3 93% 76.89 1024.7
20 20:52 NE 13 16.09 Mostly Cloudy BKN006 BKN110 20.6 18.9 90% 76.81 1023.7
20 19:52 NE 11 14.48 Partly Cloudy FEW007 SCT100 22.2 20 87% 76.81 1023.7
20 18:52 NE 15 9.66 Light Rain Fog/Mist FEW043 BKN100 BKN120 22.2 20 32.2 22.2 87% 76.78 1023.3 0.13 0.15
20 17:52 NE 13 9.66 Rain FEW060 BKN110 23.9 20 79% 24 76.84 1023.9 0.03
20 16:52 E 20 16.09 Mostly Cloudy FEW085 BKN120 28.3 19.4 59% 30 76.78 1023.0
20 15:52 E 13 16.09 A Few Clouds FEW100 29.4 20.6 59% 32 76.76 1022.9
20 14:52 NE 19 16.09 Mostly Cloudy BKN055 30.6 20.6 55% 33 76.78 1023.0
20 13:52 Vrbl 9 16.09 Mostly Cloudy SCT050 BKN060 31.7 20 50% 34 76.81 1023.4
20 12:52 Calm 16.09 A Few Clouds FEW055 31.7 20.6 31.7 22.8 52% 34 76.86 1023.8
20 11:52 E 11 16.09 Fair CLR 30 20.6 57% 32 76.89 1024.4
20 10:52 Calm 16.09 Fair CLR 28.3 20 61% 30 76.94 1024.9
20 09:52 NE 7 16.09 Fair CLR 26.7 20 67% 28 76.94 1025.2
20 08:52 NE 11 16.09 Fair CLR 25.6 20 71% 27 76.94 1025.2
20 07:52 NE 13 16.09 Fair CLR 23.9 19.4 76% 24 76.94 1025.1
20 06:52 NE 11 16.09 A Few Clouds FEW060 22.8 19.4 24.4 20 81% 76.91 1024.7
20 05:52 NE 7 16.09 Fair CLR 21.1 18.9 87% 76.86 1024.2
20 04:52 N 11 16.09 Fair CLR 20 18.3 90% 76.84 1023.6
20 03:52 N 9 16.09 Fair CLR 21.1 18.9 87% 76.81 1023.4
20 02:52 N 7 16.09 Fair CLR 21.1 18.9 87% 76.78 1023.1
20 01:52 N 9 16.09 Fair CLR 22.8 18.9 79% 76.78 1023.1
20 00:52 N 9 16.09 Fair CLR 24.4 20 31.1 22.8 77% 25 76.78 1022.9
19 23:52 N 7 16.09 Fair CLR 25 20 74% 26 76.78 1023.0
19 22:52 N 7 16.09 Fair CLR 25 18.9 69% 26 76.78 1022.9
19 21:52 Calm 16.09 Fair CLR 26.7 18.9 62% 28 76.76 1022.7
19 20:52 SW 6 16.09 Fair CLR 27.8 18.9 58% 29 76.71 1022.1
19 19:52 SW 9 16.09 Fair CLR 28.9 18.3 53% 30 76.68 1021.5
19 18:52 SW 15 16.09 Fair CLR 31.1 18.3 33.3 31.1 46% 32 76.66 1021.4
19 17:52 SW 15 G 30 16.09 Fair CLR 32.2 17.2 41% 33 76.63 1020.9
19 16:52 SW 15 16.09 A Few Clouds FEW060 FEW080 32.8 18.3 42% 34 76.63 1020.9
19 15:52 S 17 G 37 16.09 A Few Clouds FEW065 32.2 18.3 44% 33 76.66 1021.1
19 14:52 SW 24 16.09 Partly Cloudy SCT060 32.8 19.4 45% 35 76.66 1021.3
19 13:52 S 22 G 39 16.09 A Few Clouds FEW055 32.8 18.9 44% 34 76.68 1021.5
19 12:52 SW 26 G 35 16.09 Partly Cloudy SCT050 31.7 19.4 32.2 24.4 48% 33 76.68 1021.7
19 11:52 SW 22 16.09 Fair CLR 31.7 19.4 48% 33 76.68 1021.6
19 10:52 SW 20 16.09 Fair CLR 30.6 20 53% 33 76.68 1021.6
19 09:52 SW 20 16.09 Fair CLR 28.9 20 59% 31 76.68 1021.5
19 08:52 S 20 16.09 Fair CLR 27.8 20.6 65% 30 76.71 1021.9
19 07:52 S 17 16.09 Fair CLR 26.1 20.6 72% 28 76.68 1021.6
19 06:52 S 11 16.09 Fair CLR 24.4 20.6 26.1 22.2 79% 25 76.63 1021.1
19 05:52 S 11 16.09 Fair CLR 22.8 20 84% 76.58 1020.5
19 04:52 SW 9 16.09 Fair CLR 23.3 20 82% 76.53 1019.6
19 03:52 S 11 16.09 Fair CLR 23.9 19.4 76% 24 76.48 1018.9
19 02:52 S 15 16.09 Fair CLR 23.9 19.4 76% 24 76.48 1018.7
19 01:52 S 20 16.09 Fair CLR 24.4 18.9 72% 25 76.43 1018.3
19 00:52 S 22 G 37 16.09 Fair CLR 26.1 18.3 30.6 26.1 62% 27 76.43 1018.0
18 23:52 SW 24 G 41 16.09 Fair CLR 26.7 18.3 60% 28 76.38 1017.5
18 22:52 S 24 G 43 16.09 Fair CLR 27.2 19.4 62% 29 76.3 1016.7
18 21:52 S 24 G 50 16.09 Fair CLR 28.3 18.9 57% 30 76.25 1015.8
18 20:52 S 24 G 44 16.09 Fair CLR 28.9 18.9 55% 30 76.15 1014.6
18 19:52 S 28 G 48 16.09 Fair CLR 30 19.4 53% 32 76.1 1014.0
18 18:52 S 30 G 48 16.09 Fair CLR 30.6 19.4 33.3 30.6 51% 32 76.12 1014.1
18 17:52 S 37 G 57 16.09 Fair and Breezy CLR 31.7 18.9 47% 33 76.12 1014.0
18 16:52 S 33 G 61 16.09 Partly Cloudy and Breezy SCT060 32.2 19.4 47% 34 76.12 1014.0
18 15:52 S 35 G 59 16.09 A Few Clouds and Breezy FEW070 32.8 19.4 45% 35 76.1 1013.9
18 14:52 S 39 G 56 16.09 Partly Cloudy and Breezy SCT055 32.8 20 47% 35 76.1 1013.9
18 13:52 S 41 G 56 16.09 Partly Cloudy and Breezy SCT050 32.2 21.1 52% 35 76.1 1013.9
Date Time (cdt) Wind (kph) Vis. (km) Weather Sky Cond. Air Dwpt Max. Min. Relative Humidity Wind Chill (°C) Heat Index (°C) altimeter (cm) sea level (mb) 1 hr 3 hr 6 hr
6 hour
Temperature (ºC) Pressure Precipitation (cm)